Flag for China Weather past 2 weeks in Shanghai, Shanghai Municipality, China

Now
73 °F

Passing clouds.


Feels Like: 72 °F
Forecast: 69 / 79 °F
Wind: 3 mph from Southwest

Location: Shanghai Hongqiao Airport

Current Time: May 29, 2015 at 11:29:31 PM

Latest Report: May 29, 2015 at 10:30 PM


Visibility: N/A

Pressure: 29.62 "Hg

Humidity: 89%

Dew point: 70 °F

Location of ShanghaiLocation

Historic Weather in Shanghai — Graph

°F

Shanghai temperature yesterday

Maximum temperature yesterday: 77 °F (at 2:30 PM)
Minimum temperature yesterday: 68 °F (at 12:00 AM)
Average temperature yesterday: 72 °F

Past Weeks' High & Low Weather Summary

 TemperatureHumidityPressure
High84 °F (May 19, 1:30 PM)100% (May 15, 1:30 PM)30.07 "Hg (May 15, 1:30 PM)
Low59 °F (May 21, 2:30 AM)24% (May 17, 1:00 PM)29.59 "Hg (May 18, 3:30 AM)
Average71 °F71%29.79 "Hg
* Reported May 14 10:00 PM — May 29 10:30 PM, Shanghai, Weather by CustomWeather, © 2015

Note: Actual official high and low records may vary slightly from our data, if they occured in-between our weather recording intervals... More about our weather records

Advertising

Shanghai weather history for previous 24 hours

 ConditionsComfort  
Time TempWeatherWind HumidityBarometerVisibility
10:30 PM
Fri, May 29
73 °FPassing clouds.3 mph89%29.62 "HgN/A
10:00 PM73 °FClear.8 mph89%29.62 "Hg10 mi
9:30 PM73 °FPassing clouds.3 mph89%29.62 "HgN/A
9:00 PM73 °FPassing clouds.3 mph89%29.59 "HgN/A
8:30 PM73 °FClear.8 mph89%29.59 "Hg10 mi
8:00 PM73 °FPassing clouds.8 mph89%29.59 "HgN/A
7:30 PM73 °FPassing clouds.6 mph89%29.59 "HgN/A
7:00 PM75 °FPassing clouds.6 mph83%29.59 "HgN/A
6:30 PM75 °FPartly sunny.10 mph83%29.59 "HgN/A
6:00 PM75 °FPartly sunny.10 mph83%29.59 "HgN/A
5:30 PM75 °FPartly sunny.10 mph83%29.59 "HgN/A
5:00 PM77 °FPartly sunny.8 mph79%29.59 "HgN/A
4:30 PM77 °FPartly sunny.10 mph79%29.59 "HgN/A
4:00 PM77 °FPartly sunny.10 mph79%29.59 "HgN/A
3:30 PM77 °FPartly sunny.8 mph79%29.59 "HgN/A
3:00 PM77 °FPartly sunny.8 mph79%29.62 "HgN/A
2:30 PM75 °FPartly sunny.10 mph78%29.62 "HgN/A
2:00 PM75 °FPartly sunny.8 mph78%29.62 "HgN/A
1:30 PM75 °FPartly sunny.8 mph78%29.62 "HgN/A
1:00 PM75 °FPartly sunny.8 mph78%29.62 "HgN/A
12:30 PM75 °FPartly sunny.10 mph78%29.65 "HgN/A
12:00 PM73 °FPartly sunny.8 mph83%29.65 "HgN/A
11:30 AM73 °FPartly sunny.13 mph83%29.65 "HgN/A
11:00 AM73 °FPartly sunny.10 mph83%29.68 "HgN/A
10:30 AM73 °FPartly sunny.10 mph78%29.68 "HgN/A
10:00 AM72 °FPartly sunny.8 mph83%29.68 "HgN/A
9:30 AM72 °FPartly sunny.8 mph83%29.68 "HgN/A
9:00 AM72 °FPartly sunny.8 mph83%29.68 "HgN/A
8:30 AM72 °FPartly sunny.10 mph83%29.68 "HgN/A
8:00 AM70 °FPartly sunny.8 mph88%29.68 "HgN/A
7:30 AM70 °FPartly sunny.10 mph88%29.68 "HgN/A
7:00 AM70 °FPartly sunny.10 mph88%29.68 "HgN/A
6:00 AM70 °FPartly sunny.8 mph88%29.68 "HgN/A
5:30 AM70 °FPartly sunny.8 mph88%29.68 "HgN/A
5:00 AM70 °FPartly sunny.8 mph88%29.68 "HgN/A
4:30 AM70 °FPassing clouds.10 mph88%29.68 "HgN/A
4:00 AM70 °FPassing clouds.8 mph88%29.68 "HgN/A
3:30 AM70 °FPassing clouds.8 mph88%29.68 "HgN/A
3:00 AM70 °FPassing clouds.8 mph88%29.68 "HgN/A
2:30 AM70 °FPassing clouds.8 mph88%29.68 "HgN/A
2:00 AM70 °FPassing clouds.8 mph88%29.68 "HgN/A
1:30 AM70 °FPassing clouds.10 mph88%29.68 "HgN/A
1:00 AM70 °FPassing clouds.8 mph88%29.68 "HgN/A
12:30 AM70 °FPassing clouds.10 mph88%29.68 "HgN/A
12:00 AM70 °FPassing clouds.10 mph88%29.71 "HgN/A
11:30 PM
Thu, May 28
70 °FPassing clouds.8 mph88%29.71 "HgN/A
11:00 PM70 °FPassing clouds.8 mph88%29.71 "HgN/A
Weather by CustomWeather, © 2015

See weather overviewHow to use our weather pages